Wind_Speed
18 20 22 21 22 22 20 20 21 21 20 20 20 21 20 19 18 17 16 15 15 14 13 13 12 12 12 11 11 10 9 9 9 9 10 10 10 10 10 10 10 10 11 10 9 9 8 8 7 7 7 6 6 6 7 7 6 6 7 7 8 9 10 9 6 8 9 10 12 12 12 12 12 12 13 13 13 13 12 13 14 12 11 11 12
20 21 22 22 22 22 21 21 21 21 21 20 20 20 19 18 18 16 16 15 14 13 12 12 12 12 11 11 10 10 9 10 10 11 10 10 11 11 11 11 10 10 10 10 9 9 8 8 8 8 8 7 6 7 8 8 7 7 8 8 9 9 9 9 8 10 10 11 14 12 12 12 12 12 12 12 12 13 13 13 13 12 11 12 13
21 21 22 23 23 22 22 21 20 20 20 20 19 20 19 18 17 16 15 14 13 12 12 12 12 12 11 10 10 10 10 10 11 11 10 10 10 11 11 11 10 10 10 10 9 9 8 8 9 10 9 8 7 7 8 8 8 8 7 7 8 8 9 9 9 10 10 12 13 12 11 11 12 12 12 12 12 13 14 12 13 14 13 14 14
21 22 22 23 22 21 20 19 19 19 19 19 19 19 18 17 15 15 14 13 12 12 11 11 11 11 10 10 10 10 11 10 10 10 10 10 10 11 11 11 11 11 10 9 8 8 9 9 10 10 9 9 8 9 9 9 9 8 7 7 7 8 9 9 9 10 10 11 12 13 12 11 11 12 12 12 13 14 14 13 13 14 15 15 15
21 22 21 22 20 19 19 19 19 19 18 18 18 18 17 16 14 14 13 12 11 11 11 10 11 10 10 11 11 10 10 10 10 10 10 10 10 11 11 11 11 10 9 8 8 9 9 10 11 11 10 10 9 9 10 10 8 8 8 8 7 8 10 9 9 11 10 11 12 12 12 11 11 11 12 13 14 14 14 13 13 14 15 15 13
21 21 20 20 19 18 19 19 20 19 19 18 17 17 16 15 14 14 12 12 11 11 10 10 11 10 10 11 11 10 10 10 10 10 9 9 10 11 11 11 11 10 9 9 10 10 10 11 11 11 11 11 10 10 10 10 9 8 9 8 9 10 10 10 11 12 11 12 13 11 11 11 11 12 12 13 14 14 14 13 13 13 13 14 11
21 21 19 18 19 18 18 18 18 18 17 16 16 16 15 14 13 13 12 11 11 10 10 10 10 10 10 11 10 10 10 9 9 8 8 9 10 11 11 11 11 9 9 10 11 12 12 12 12 12 11 11 10 10 10 11 10 9 9 9 10 11 10 10 11 11 11 15 15 11 10 11 12 13 13 14 14 14 13 13 13 12 12 13 12
21 21 19 17 18 18 17 16 15 14 13 13 13 13 12 12 12 12 11 11 10 10 10 10 10 10 10 10 10 10 10 9 8 8 8 9 10 11 11 11 10 9 10 11 12 12 12 12 12 12 11 11 11 11 11 12 11 11 11 11 10 10 10 9 9 11 12 15 13 10 10 11 12 13 13 13 13 13 14 14 13 13 13 13 12
21 21 19 18 17 17 16 15 15 14 13 13 13 13 13 13 12 12 12 11 10 10 10 10 10 10 10 10 10 10 9 9 8 8 9 9 10 11 11 11 10 9 10 11 11 11 11 12 11 11 11 11 11 12 12 12 13 12 12 13 12 12 11 9 9 12 13 14 12 10 11 12 13 13 12 13 13 13 14 14 14 13 13 12 12
22 21 19 18 17 16 16 16 16 15 14 14 14 14 14 14 13 13 13 12 10 10 10 10 10 10 10 11 11 10 10 9 9 9 9 9 9 10 11 11 10 9 10 11 11 11 11 11 11 11 11 11 11 12 12 13 13 13 13 14 13 13 12 10 9 10 11 12 12 11 12 13 13 12 12 13 13 14 15 15 13 12 12 12 12
22 21 19 18 17 16 17 17 17 17 15 15 15 15 14 14 14 13 13 12 11 11 10 10 11 12 11 11 11 11 12 10 9 9 9 9 9 10 11 11 10 9 10 11 11 11 11 11 11 11 11 11 11 12 12 13 13 13 13 13 12 13 14 12 11 10 10 12 13 12 13 13 13 12 13 13 13 15 16 14 13 13 12 12 12
21 20 20 18 17 17 18 18 17 17 16 15 15 15 14 14 14 14 13 12 12 12 11 12 12 12 11 11 10 11 13 11 9 9 9 9 9 10 11 11 11 10 11 12 11 11 11 11 11 12 12 11 12 11 11 13 14 14 14 12 12 13 15 15 13 11 12 13 14 14 13 13 13 12 13 13 14 15 15 14 13 13 12 12 13
21 20 20 18 17 17 17 17 17 16 16 15 15 15 15 15 14 14 13 13 13 13 13 12 12 11 11 11 10 11 13 12 10 10 10 9 10 10 11 11 11 10 11 12 11 10 10 11 12 12 12 12 12 12 12 13 15 15 14 12 12 14 16 16 14 12 12 13 13 14 13 13 13 13 14 14 14 15 15 13 13 13 12 12 13
21 21 20 18 17 17 17 16 15 15 15 15 15 15 15 15 14 13 13 13 13 14 14 13 12 11 11 11 11 11 13 13 12 11 10 10 10 10 11 11 12 11 10 11 10 10 10 11 12 12 12 12 12 13 14 14 15 16 15 13 13 16 18 16 14 13 13 13 13 13 13 13 13 13 14 14 14 14 15 14 13 12 12 12 13
22 22 20 19 18 17 17 16 15 14 14 14 14 14 15 15 14 13 13 13 13 14 13 13 13 12 11 12 12 12 13 13 12 12 11 11 11 11 11 12 12 11 10 10 10 10 11 12 12 12 12 12 12 13 14 15 16 17 16 14 13 15 16 16 15 13 13 13 13 13 13 13 13 13 13 13 14 14 15 14 12 11 11 12 13
22 22 20 19 18 17 16 15 15 15 14 14 14 14 14 15 15 14 13 13 13 13 13 14 13 13 12 12 12 12 12 13 13 12 12 12 12 12 11 12 12 12 10 9 9 10 11 12 12 12 12 11 12 12 13 14 16 17 17 16 14 12 14 16 14 12 13 12 14 14 13 13 13 12 12 12 13 14 15 14 12 11 11 12 12
22 21 20 19 18 17 16 15 15 14 14 13 13 13 14 14 14 14 13 13 13 14 14 14 13 13 12 12 12 12 12 13 13 13 12 12 12 12 12 12 12 12 11 9 9 10 11 11 12 12 12 11 11 11 12 13 15 16 16 16 15 12 13 15 13 12 13 12 13 14 13 13 13 13 13 12 13 13 13 13 12 11 11 11 12
21 21 20 19 18 17 16 16 15 14 13 13 13 13 13 13 14 14 14 14 14 15 14 14 14 14 14 13 13 12 13 13 14 13 13 12 12 12 12 13 12 11 11 9 9 10 11 11 11 12 12 11 11 12 12 12 14 15 15 16 15 13 14 14 12 12 13 13 14 14 13 13 12 12 13 12 12 12 12 12 12 10 10 10 11
20 21 20 19 18 18 17 16 15 14 13 13 13 13 13 13 13 14 15 15 15 15 15 15 15 15 15 15 14 14 14 14 14 13 13 13 12 12 12 12 12 11 10 9 10 11 11 10 10 11 11 11 11 11 12 12 13 14 14 14 13 14 14 11 11 12 13 14 14 14 14 13 12 12 12 12 11 11 11 11 10 9 8 9 9
20 20 19 19 18 18 17 16 16 15 14 14 13 13 13 13 14 14 15 15 15 15 15 15 15 15 16 16 15 15 15 14 14 13 13 12 12 12 12 11 11 10 10 9 10 11 11 10 10 10 10 10 10 11 12 13 13 13 13 11 12 13 11 9 12 13 13 14 13 12 12 12 12 12 12 11 11 11 10 9 8 8 7 8 8
20 20 19 18 18 18 16 15 16 15 15 15 14 14 13 13 14 15 14 15 15 15 15 15 16 15 16 15 15 15 15 14 14 13 12 12 12 12 12 11 11 10 9 9 10 11 11 10 10 10 10 10 11 11 12 12 12 12 11 11 12 11 10 11 14 14 13 12 11 10 10 11 11 11 11 11 10 9 9 8 8 7 7 7 7
20 19 18 18 18 18 16 16 16 16 16 16 15 14 14 14 14 14 14 15 15 15 15 15 14 14 15 14 14 13 13 13 13 13 13 13 12 11 11 11 11 10 9 9 10 10 11 11 10 10 11 11 11 11 12 13 13 12 11 13 12 9 10 11 13 14 12 12 10 9 11 11 11 10 10 9 8 8 8 8 8 7 6 6 6
20 19 19 18 18 18 17 16 16 16 16 16 15 15 15 14 14 14 15 15 15 15 14 14 13 13 13 13 13 13 12 12 12 12 12 13 13 12 11 11 11 11 10 10 10 11 11 12 11 11 11 11 10 10 11 11 12 12 13 13 10 9 9 9 11 13 12 11 10 10 11 12 12 11 9 9 9 8 8 8 8 8 7 7 6
20 19 19 18 18 18 17 16 16 16 16 16 16 15 15 14 14 14 15 15 14 14 12 13 13 12 12 12 13 13 13 13 12 11 12 12 12 13 13 12 11 11 11 10 11 12 12 12 11 10 9 9 10 10 9 7 8 12 12 10 8 9 9 7 8 11 10 10 10 10 11 11 11 11 10 10 10 9 9 8 8 8 8 7 7
20 19 19 18 18 18 18 17 16 16 15 15 15 15 15 14 15 15 15 14 13 13 11 10 11 10 10 9 12 13 12 12 12 11 11 10 11 12 12 13 12 10 10 11 11 11 11 11 10 9 8 8 9 10 8 5 7 9 9 8 7 8 8 7 6 8 10 9 9 9 10 11 11 10 10 10 11 10 9 9 9 8 8 7 7
20 19 19 18 18 18 18 18 17 16 15 14 14 15 15 14 15 15 14 13 13 12 11 9 10 10 8 7 9 11 11 11 11 10 9 9 9 10 11 11 12 10 9 10 10 9 9 10 9 8 8 8 8 8 6 5 7 7 7 8 8 8 8 8 6 7 8 8 8 8 9 10 10 10 9 9 10 10 9 10 9 8 8 8 8
20 20 20 19 19 18 18 18 17 17 16 14 14 15 14 14 15 15 14 13 12 12 10 9 10 10 8 7 7 8 9 10 10 9 7 8 9 8 9 10 9 9 10 10 9 8 7 7 8 8 7 6 6 6 6 7 7 7 7 7 8 8 8 8 7 5 6 6 7 7 7 8 9 9 8 8 9 9 9 9 9 9 8 8 7
21 20 20 20 19 19 19 18 18 18 17 15 15 15 14 14 15 14 13 13 12 11 10 9 10 10 9 7 6 7 8 8 10 8 6 8 8 7 9 11 8 6 9 9 8 8 7 6 7 7 6 5 5 6 6 7 7 7 7 7 8 8 8 8 7 5 5 5 6 6 6 6 7 7 7 7 8 8 8 8 8 9 8 8 7
22 21 20 21 20 20 20 18 19 18 17 16 15 15 14 14 15 14 13 14 12 10 10 9 8 8 9 9 6 7 8 8 9 7 7 9 7 6 9 11 10 7 7 8 7 7 6 5 6 6 5 5 5 5 6 6 6 6 6 7 7 7 7 7 8 6 4 5 5 5 5 5 6 6 6 6 6 6 6 7 7 8 8 8 7
22 22 21 21 21 20 20 18 19 18 17 16 15 15 14 14 15 14 14 14 11 10 10 9 8 7 8 11 10 9 8 7 8 6 8 9 7 8 9 9 8 8 8 7 6 6 6 5 5 5 5 5 5 5 6 5 6 6 6 6 6 6 6 7 8 7 5 4 3 4 4 4 4 5 5 5 5 5 5 6 7 7 6 6 6
23 23 22 22 21 21 20 19 20 19 17 16 15 16 15 15 14 13 14 14 11 11 10 8 8 7 7 11 13 13 9 8 9 6 6 8 7 7 8 9 6 7 8 5 5 7 6 6 6 5 4 5 4 4 5 5 5 6 6 5 5 5 6 6 7 7 6 3 3 4 4 3 4 4 4 4 4 3 4 5 5 5 5 5 5
23 23 22 22 22 21 21 20 20 21 18 16 16 17 17 17 16 14 13 13 12 11 9 8 8 7 8 10 12 13 10 10 10 7 6 7 7 6 7 8 6 6 8 5 4 7 6 5 6 6 5 4 3 4 4 5 5 5 5 5 4 5 5 6 6 6 6 4 3 3 3 3 3 3 3 2 2 2 2 4 3 3 3 3 3
23 23 23 23 23 22 21 20 20 22 20 17 17 18 18 18 17 14 13 14 13 11 9 9 8 7 9 9 9 10 8 9 10 8 7 7 7 6 6 7 6 6 6 5 5 6 5 5 5 5 5 4 3 3 4 4 4 4 5 5 4 4 5 5 5 5 5 5 4 3 2 3 3 2 2 1 1 1 1 3 2 1 1 1 1
24 23 23 24 24 22 22 20 19 22 21 17 17 18 16 17 16 13 14 14 12 10 9 9 8 7 8 8 8 8 7 8 9 8 8 7 5 6 6 6 6 6 5 5 6 6 5 6 5 5 5 5 4 2 3 4 4 4 4 5 4 4 5 5 5 5 5 5 4 3 2 2 3 2 2 1 1 1 1 1 2 1 1 0 0
24 24 23 24 25 22 22 21 20 22 21 18 18 17 15 15 15 13 14 14 11 10 10 8 8 7 7 8 8 7 6 7 8 8 8 7 5 5 6 5 5 5 4 4 6 5 5 7 6 5 5 6 4 2 3 3 3 4 4 4 4 4 4 4 5 5 5 5 4 4 3 2 2 2 2 2 1 2 2 2 0 1 1 0 1
24 25 24 24 25 23 23 22 21 22 21 19 18 17 16 15 15 13 14 15 12 10 10 8 8 8 7 7 8 7 6 6 7 8 7 6 6 4 4 5 4 5 6 5 5 4 4 7 6 5 6 7 4 2 3 3 4 4 3 4 4 3 4 4 4 4 4 4 4 4 4 2 1 1 2 2 2 3 3 1 1 1 1 1 1
25 25 25 26 25 24 23 22 21 23 23 20 19 18 18 17 16 14 14 16 13 10 10 9 8 9 8 7 8 7 7 6 6 7 6 4 5 4 3 4 4 5 5 5 5 3 4 5 4 6 7 7 5 3 3 3 4 3 3 4 3 3 3 4 4 4 4 4 4 4 3 2 3 4 2 2 2 2 3 3 2 1 2 2 2
25 26 26 26 26 25 24 22 22 23 24 23 21 20 19 19 18 15 16 16 13 10 10 10 9 9 8 8 8 8 7 7 6 6 5 4 4 3 3 3 4 5 4 4 5 4 4 4 4 5 6 4 4 4 3 4 4 3 3 3 3 3 3 3 4 4 4 4 4 4 4 3 3 3 1 0 2 2 3 4 3 2 3 3 2
26 26 26 26 26 25 24 23 23 23 24 24 23 21 20 20 18 15 15 15 12 11 10 9 9 9 9 9 8 8 8 7 6 6 6 5 4 3 3 4 4 4 3 4 3 3 3 3 3 4 4 3 3 4 3 4 4 3 3 3 3 3 3 3 4 4 3 3 4 4 3 4 3 2 2 2 1 4 4 3 3 3 3 4 4
26 27 27 27 26 26 25 23 24 23 24 26 24 22 21 20 17 15 15 15 13 12 10 10 9 9 9 9 9 8 8 7 7 7 6 4 4 2 2 4 4 3 3 3 1 1 3 3 4 4 5 3 2 3 3 3 3 3 3 3 3 3 3 3 3 3 3 3 3 3 3 4 3 3 4 3 2 2 4 5 5 4 3 4 4
27 28 28 28 27 27 27 25 25 25 25 27 26 24 22 20 18 16 15 14 14 13 11 11 10 9 10 10 9 9 7 7 7 7 6 4 5 3 2 4 4 2 4 3 1 1 3 3 4 4 5 4 2 3 2 3 4 4 3 3 3 3 2 3 3 3 2 2 2 2 3 2 3 3 3 3 4 2 3 5 4 2 4 5 4
29 29 29 30 28 27 29 29 27 26 26 28 27 25 23 21 19 16 14 14 14 13 12 11 10 10 11 11 10 9 8 7 7 7 6 4 5 4 2 4 4 2 3 4 0 2 3 2 2 2 4 4 3 3 2 3 3 3 3 3 3 3 2 2 3 3 2 2 2 2 2 2 3 3 2 2 3 2 3 3 3 1 2 3 3
31 30 30 30 30 28 30 32 31 28 27 28 29 27 24 22 19 16 15 13 13 13 11 11 11 10 11 11 11 10 9 8 7 7 6 5 4 3 2 2 3 2 2 2 1 2 2 0 1 1 3 4 3 3 4 4 3 3 3 4 4 4 2 2 3 3 3 2 2 2 2 2 3 2 1 1 1 1 1 1 3 4 3 1 0
31 32 31 31 31 29 30 34 34 31 29 29 31 29 25 23 19 17 15 13 12 13 12 11 12 11 10 11 12 11 10 9 8 8 7 6 5 4 4 4 3 2 1 1 1 1 2 1 1 1 3 3 3 3 4 5 4 3 3 2 4 4 2 4 5 4 4 3 2 2 2 2 2 1 1 1 1 1 1 2 5 6 5 3 1
32 33 33 33 32 31 32 35 36 33 31 31 32 31 28 26 22 18 16 13 11 14 14 13 13 13 11 11 12 12 11 10 9 9 8 7 6 6 6 6 5 3 2 2 1 0 1 1 1 1 3 4 4 4 2 3 5 4 3 2 2 2 1 3 6 4 4 4 3 3 2 1 2 1 0 1 2 1 1 3 7 7 5 4 4
33 33 33 33 32 32 33 35 36 36 34 33 34 33 31 30 28 23 21 18 15 16 16 15 13 13 12 11 11 12 11 11 10 9 9 8 7 7 7 6 5 4 4 4 3 1 1 1 1 1 1 2 3 4 3 3 3 3 4 3 2 2 4 2 3 3 3 3 2 3 2 2 3 2 2 1 2 2 1 3 6 6 5 5 4
33 33 33 33 32 32 34 36 37 37 36 36 36 35 34 33 31 28 25 23 21 20 18 15 12 12 12 12 12 12 11 11 11 10 9 9 8 7 7 7 5 5 5 5 4 1 0 1 1 1 2 0 1 3 3 2 1 1 3 2 1 0 2 1 2 2 2 2 1 1 2 3 2 2 2 1 2 3 2 2 3 3 5 6 4
33 33 33 33 33 33 34 36 38 38 38 38 37 37 36 35 33 31 28 26 24 21 19 16 13 12 12 12 12 12 12 11 11 11 10 9 9 8 8 7 7 6 6 5 4 3 4 5 4 2 1 1 1 4 4 2 1 0 2 3 2 2 2 3 1 1 2 1 0 1 1 1 1 1 1 2 2 3 4 4 3 3 5 6 6
33 34 33 33 33 33 34 37 39 39 39 39 38 38 38 37 35 33 31 29 25 20 18 17 15 13 13 13 13 13 13 12 12 12 11 10 9 9 8 8 8 7 6 5 4 5 7 7 5 3 2 1 0 2 3 4 3 2 2 3 3 2 2 3 2 2 2 0 1 0 0 0 0 1 0 1 1 1 3 5 6 3 5 6 7
33 34 33 32 33 33 34 37 39 39 40 41 40 39 39 38 37 35 33 32 28 21 17 16 17 17 15 15 15 15 14 12 12 13 13 11 10 10 9 9 8 8 7 6 6 6 7 7 5 3 3 2 1 1 1 3 4 4 3 3 4 3 3 3 4 4 3 2 2 1 1 1 1 1 0 1 1 2 2 4 6 4 4 6 7
33 33 33 33 33 35 35 36 38 40 40 41 41 40 40 39 38 37 35 33 31 27 21 17 17 20 20 17 16 16 15 13 12 13 13 12 12 11 10 9 9 9 9 8 7 7 6 6 6 5 4 3 3 2 1 2 3 4 3 3 3 3 4 4 4 4 3 2 3 3 2 2 1 0 2 3 3 3 3 4 4 4 5 6 6
Wind_Direction
118 119 121 123 123 125 125 122 121 122 123 124 127 126 125 122 118 118 121 123 120 116 116 119 122 122 121 119 118 118 116 112 108 104 100 95 91 86 82 79 82 85 86 86 87 91 95 104 116 124 127 131 129 124 124 123 123 123 113 109 105 108 112 110 98 82 86 91 92 90 86 82 80 81 80 78 75 70 71 74 66 61 65 74 78
123 123 124 126 126 127 126 123 123 127 127 127 129 127 124 122 121 123 126 126 122 119 118 120 124 126 125 124 124 122 118 112 108 104 100 95 91 85 80 79 82 86 87 84 85 91 96 103 111 115 120 129 130 123 121 122 124 120 109 107 105 110 113 106 93 78 80 85 87 91 92 91 90 88 85 84 79 74 73 74 74 70 66 69 72
125 124 126 128 127 127 125 124 126 129 130 130 130 127 125 123 124 126 128 128 125 124 123 122 124 128 128 127 126 121 115 111 109 105 101 97 92 87 82 79 79 82 84 83 83 88 94 101 107 111 116 124 125 115 112 113 112 106 100 102 103 106 104 97 93 82 77 81 87 91 91 92 94 93 89 86 80 78 76 75 77 80 78 72 73
127 126 129 129 126 126 125 124 126 129 130 129 127 126 124 124 126 128 131 132 130 128 125 124 125 129 131 127 122 118 117 115 113 108 101 96 91 87 81 76 75 78 81 83 85 88 93 100 105 109 112 114 114 109 106 102 99 100 94 89 90 94 96 99 96 84 80 85 91 92 88 88 90 90 88 84 79 79 79 76 74 81 85 79 75
126 128 131 129 128 128 126 125 124 127 127 127 126 124 123 126 129 129 132 133 131 129 126 126 129 132 132 128 123 123 121 116 112 104 98 93 90 85 79 73 73 78 81 84 89 91 97 102 103 106 108 106 105 103 100 95 92 93 86 81 80 81 89 99 95 86 89 92 92 91 89 91 91 89 87 85 83 84 83 78 74 74 79 77 72
125 127 129 128 128 128 127 125 124 127 129 129 129 127 128 132 131 130 133 134 132 132 133 133 133 135 132 128 124 123 118 111 104 97 94 95 94 88 79 74 76 80 82 90 95 94 99 102 102 105 106 106 103 98 94 89 84 77 74 77 76 75 83 91 91 92 94 89 90 93 94 96 96 94 90 89 90 89 84 81 80 72 71 73 68
126 125 125 125 127 127 125 124 125 127 130 133 132 131 131 129 128 132 136 134 135 136 138 138 137 138 132 128 123 118 112 107 101 98 100 100 97 90 82 77 81 85 87 93 96 97 101 102 102 103 104 104 101 98 92 86 80 75 74 74 76 80 84 87 92 101 97 86 87 95 100 102 101 101 98 96 97 92 86 81 81 78 72 72 72
126 123 125 129 130 129 125 124 123 123 127 130 127 126 125 124 130 135 137 135 138 139 141 139 140 141 133 126 120 114 111 109 107 105 103 102 99 96 90 84 85 87 90 94 96 99 101 101 101 101 102 101 98 95 90 87 83 79 80 80 82 84 84 85 91 98 98 93 95 103 107 107 105 104 102 101 97 90 86 82 80 81 79 77 79
126 125 130 133 132 128 124 124 123 126 129 128 125 125 123 126 132 133 134 136 137 137 139 139 138 136 127 123 120 116 113 109 107 104 103 106 106 104 99 91 88 87 90 94 96 99 98 97 96 96 98 97 96 93 90 87 82 77 78 82 85 86 86 89 91 89 95 105 110 114 111 106 104 104 105 102 93 87 86 84 80 81 82 82 85
128 128 133 134 133 129 126 126 127 131 131 129 127 125 125 126 128 129 130 132 134 132 133 132 128 123 120 121 120 116 112 106 106 106 107 110 108 107 103 94 91 89 91 95 97 99 99 98 97 96 96 97 96 93 91 87 81 75 74 82 86 91 93 91 92 92 97 109 110 108 107 106 105 103 102 96 90 88 87 86 87 88 87 87 90
130 129 136 137 135 133 130 129 129 131 129 128 127 125 124 125 126 125 125 127 130 129 128 126 122 119 117 118 117 117 113 108 110 110 107 108 108 108 104 95 92 94 96 97 97 99 100 102 102 101 100 99 98 96 96 92 87 80 75 84 90 95 98 93 91 93 95 103 106 105 104 105 105 103 99 93 90 88 88 91 93 92 91 91 91
130 133 139 140 138 135 131 131 131 130 127 127 127 127 126 126 126 124 123 125 126 125 125 123 119 115 114 115 115 116 112 110 114 112 110 111 109 109 106 97 94 98 99 99 96 96 100 105 107 105 103 102 100 99 97 95 91 84 81 85 90 93 94 91 90 96 97 98 104 106 106 106 106 106 103 97 93 91 93 96 95 92 92 93 92
132 137 141 141 140 135 132 131 131 129 126 127 129 127 127 128 126 125 124 123 124 123 121 117 114 113 116 118 116 115 111 110 113 112 113 114 112 113 110 100 96 101 102 100 97 97 100 105 108 106 103 102 101 99 95 93 90 87 85 84 90 93 88 87 89 94 97 96 99 104 107 106 106 107 104 99 96 96 98 98 94 91 90 92 91
135 138 141 144 141 135 133 132 130 129 127 128 129 127 126 127 126 126 123 120 122 121 118 117 117 117 118 118 117 115 111 110 112 111 113 114 114 115 113 102 98 102 104 102 98 95 98 103 106 106 104 102 100 97 92 90 91 91 90 84 86 89 85 86 88 88 91 96 98 100 102 102 103 103 101 99 99 101 102 98 93 91 91 92 92
136 137 143 145 141 137 137 135 132 129 128 129 128 126 126 125 125 125 121 120 121 121 120 119 119 119 119 117 116 112 109 110 112 114 116 117 116 117 115 107 102 103 104 103 98 94 100 106 107 105 103 102 99 95 92 91 93 94 96 91 83 84 85 85 84 85 90 96 98 97 98 99 100 101 99 100 101 102 101 97 95 95 95 94 94
137 140 144 144 141 141 140 138 135 132 132 132 129 126 125 124 125 126 124 124 124 122 119 118 118 117 116 113 111 108 107 109 110 113 115 117 118 120 119 114 109 105 105 103 98 96 100 107 106 103 101 102 100 96 94 94 95 96 98 98 91 88 89 87 84 88 92 94 98 98 98 99 99 100 101 102 103 102 101 101 101 99 98 98 99
140 141 143 144 143 143 142 141 138 135 136 134 131 127 126 125 126 128 127 127 125 122 119 118 118 115 113 109 106 107 108 108 109 111 111 113 115 118 120 117 115 111 111 108 104 100 99 101 99 99 99 100 101 98 96 96 98 98 99 99 98 97 90 89 90 94 95 92 93 95 96 99 99 98 100 100 102 104 105 106 104 101 100 101 102
141 142 144 146 146 145 144 143 139 135 135 132 132 131 129 128 126 128 127 126 124 122 121 120 119 116 114 109 108 108 108 108 109 111 109 110 111 114 118 119 119 117 117 116 110 103 99 97 95 97 97 98 99 96 96 98 99 100 103 102 104 101 89 89 92 90 93 92 88 89 90 90 91 93 97 98 100 105 107 106 105 106 105 105 107
143 144 145 146 147 147 145 144 140 137 137 135 136 136 133 130 127 128 127 125 123 122 121 120 120 117 114 109 108 106 104 105 106 107 106 106 107 110 116 119 121 121 121 119 112 106 102 98 96 97 97 97 95 93 94 95 98 103 106 105 105 97 88 92 96 88 89 91 87 87 90 90 90 91 95 98 98 100 99 100 105 112 114 112 112
145 146 145 148 149 148 148 146 142 140 140 140 141 139 136 133 130 129 127 126 123 122 123 121 120 117 115 111 108 107 104 103 100 99 101 101 103 107 111 115 120 121 120 115 109 106 104 102 101 100 98 94 88 88 88 90 95 100 102 104 101 94 92 97 96 90 86 84 83 85 92 94 93 92 93 94 94 95 99 108 116 122 123 116 111
147 149 148 151 151 150 152 148 145 144 144 144 142 141 137 134 131 130 128 125 123 123 123 120 119 118 116 114 112 110 108 106 103 101 101 101 103 105 107 110 116 118 113 107 102 102 103 102 101 100 96 89 86 85 83 85 87 89 92 89 85 89 97 98 94 95 93 88 87 92 97 95 89 87 87 87 88 94 105 116 120 122 123 116 108
151 152 150 155 154 152 154 151 150 148 146 144 142 141 137 135 133 132 128 125 126 125 123 122 121 119 118 116 113 111 112 112 108 107 106 105 106 106 107 110 111 112 109 104 99 98 101 100 96 95 93 86 84 85 81 76 72 73 77 75 76 82 90 90 90 99 101 92 94 104 108 104 97 93 91 93 97 103 108 109 107 107 111 109 104
155 155 152 159 158 154 156 155 153 148 144 143 141 141 138 137 135 133 131 131 131 127 128 127 122 122 121 118 116 115 118 115 109 108 107 105 105 105 107 109 110 112 112 110 107 106 106 103 98 93 93 90 85 84 79 69 65 68 69 71 77 80 79 80 89 101 100 90 95 108 112 111 108 106 104 105 106 108 108 104 100 98 97 97 97
157 157 155 161 161 156 156 156 155 147 144 144 142 143 140 137 136 137 135 135 132 129 133 131 128 126 120 121 123 118 115 113 110 106 104 105 105 108 112 110 108 109 113 114 111 110 107 101 95 92 93 96 90 81 75 63 62 68 71 77 85 82 79 76 87 100 95 85 94 108 114 114 110 107 102 99 98 98 100 101 99 94 91 90 92
158 159 158 162 162 157 156 159 157 148 143 143 144 145 142 140 142 142 139 139 135 132 134 132 131 119 112 124 122 115 115 110 106 103 102 102 102 109 112 110 108 108 108 108 107 106 101 95 90 88 90 88 80 77 79 75 66 69 79 90 89 86 89 81 75 91 93 88 92 102 111 112 109 105 100 97 95 92 92 96 96 93 91 90 89
160 161 161 162 163 158 158 160 157 150 144 143 148 147 143 147 149 147 147 146 143 141 137 134 129 116 117 130 115 112 116 108 103 104 107 108 106 112 118 114 109 112 111 102 104 106 99 96 90 78 74 73 75 85 100 99 83 81 87 89 88 88 91 87 76 78 86 87 88 96 104 105 105 102 99 97 94 91 86 88 91 92 93 93 90
162 162 163 163 163 162 160 158 158 154 148 149 154 151 148 153 154 153 152 150 149 144 139 145 138 125 131 134 117 107 111 115 115 112 109 105 105 115 127 119 106 111 114 104 101 99 92 97 98 91 89 92 92 94 96 93 90 86 85 85 87 88 87 90 92 81 74 80 84 91 96 97 99 97 97 96 95 92 86 83 84 87 90 93 94
163 163 164 164 164 165 160 159 163 157 153 155 156 156 152 156 158 154 153 152 151 145 146 157 143 134 138 131 126 120 123 127 119 115 108 98 104 115 114 112 109 97 94 98 101 100 101 104 105 108 112 110 100 91 83 84 86 84 86 88 85 87 90 91 94 79 60 74 82 85 89 90 91 90 90 90 90 91 89 86 83 83 86 88 89
165 164 166 166 166 168 162 162 167 162 160 158 158 159 153 159 160 152 158 153 147 151 154 154 138 140 143 133 141 139 133 123 116 130 129 117 123 117 104 110 120 114 101 109 115 113 118 116 108 111 111 106 104 98 87 80 84 84 83 85 84 85 89 92 95 86 68 74 77 79 81 81 84 85 82 80 81 84 85 83 79 75 74 78 83
167 166 168 167 168 169 165 166 168 166 164 159 160 162 155 164 162 157 164 149 148 162 151 149 143 146 151 142 145 132 117 120 125 137 131 125 124 112 110 112 118 127 124 122 127 125 124 122 115 111 112 111 108 102 92 84 83 82 77 79 85 83 85 89 93 97 90 71 68 81 81 73 79 83 82 79 77 77 77 76 70 66 61 62 71
168 168 169 169 169 169 167 169 171 169 165 162 164 166 161 165 164 163 162 149 159 163 146 155 148 150 169 151 143 128 121 140 132 124 128 122 116 114 115 110 114 125 119 124 147 143 138 137 133 127 123 113 109 105 93 86 80 79 76 75 83 82 85 86 87 98 103 95 86 88 86 80 78 79 83 86 86 78 71 74 70 64 58 51 56
169 170 170 170 170 169 169 171 174 172 166 166 169 170 167 167 168 163 161 163 164 156 151 160 148 162 176 155 150 140 140 152 135 133 144 130 125 123 113 114 131 129 121 144 146 136 144 144 138 136 126 111 110 109 90 83 81 84 82 75 81 82 85 90 92 100 103 104 100 89 87 82 72 67 68 64 73 83 78 81 77 69 61 42 43
170 171 170 172 171 170 172 172 177 176 167 170 173 172 172 171 170 161 169 175 161 154 164 161 155 176 172 156 164 153 150 155 141 140 137 134 136 126 119 124 134 122 122 138 104 103 119 107 120 139 134 123 120 110 96 91 85 82 83 80 78 81 88 91 92 98 98 99 100 102 91 74 65 48 44 28 23 32 83 97 95 76 74 66 17
171 172 171 173 172 170 173 172 180 180 170 173 175 171 174 174 170 166 177 175 160 161 167 167 165 170 168 162 165 159 161 158 146 138 125 125 128 125 134 125 120 112 107 117 92 88 101 91 114 141 135 124 121 122 108 101 93 83 83 84 75 82 94 91 91 97 100 104 106 111 102 69 65 45 27 12 357 325 346 77 114 131 159 132 296
172 173 172 173 173 173 174 172 181 182 173 176 178 170 173 176 170 172 182 173 166 170 165 172 168 158 171 169 164 166 167 160 152 143 130 129 126 129 130 112 118 113 99 103 85 92 119 107 114 124 113 107 105 127 120 111 104 87 82 87 80 86 97 94 94 93 96 105 109 117 117 93 75 51 50 51 15 355 341 324 359 137 168 181 257
174 175 173 174 175 175 176 174 180 183 176 177 180 173 171 176 174 175 183 175 170 172 167 173 169 160 172 176 171 169 171 169 158 147 136 135 134 127 114 116 136 113 107 113 88 88 108 95 104 116 104 98 90 91 111 120 112 97 89 93 83 87 98 96 95 95 99 102 99 105 108 110 99 40 62 75 37 21 13 340 298 322 317 309 287
176 175 174 175 175 177 178 175 180 183 181 180 181 177 173 178 179 176 184 180 169 172 171 170 175 168 166 186 182 168 176 176 164 152 135 124 126 116 111 126 119 97 107 116 99 87 81 71 85 109 103 95 99 104 108 121 118 108 98 98 93 98 109 106 103 102 97 98 99 101 94 69 37 34 34 30 29 20 31 53 57 11 344 323 305
177 176 176 175 176 179 178 176 181 183 185 187 186 182 178 180 180 179 183 178 168 174 176 168 176 174 171 191 185 170 177 173 173 162 140 144 149 126 117 121 100 92 100 98 94 90 86 70 64 92 99 90 104 109 104 119 126 121 97 98 110 111 120 115 112 108 92 95 105 105 92 66 47 49 93 359 358 358 24 36 39 35 16 1 340
180 178 178 176 177 179 178 178 180 181 187 192 191 187 184 182 179 180 183 177 169 176 181 176 176 173 182 199 187 176 181 175 177 170 157 164 152 120 118 117 102 103 98 84 101 89 63 69 61 63 72 80 114 124 125 125 129 134 109 99 110 117 127 112 109 111 102 104 110 109 93 83 76 53 74 107 17 349 357 4 9 10 4 6 5
182 180 179 177 177 180 177 177 180 180 188 194 192 190 188 184 178 180 187 182 177 180 182 184 183 176 189 202 190 185 187 181 182 177 170 150 119 114 136 124 115 124 106 75 121 82 25 38 60 57 62 56 77 116 136 136 139 154 135 121 118 125 132 114 119 129 121 119 109 110 97 87 94 74 65 97 122 348 339 359 17 360 337 347 354
183 181 180 179 178 181 179 178 179 180 190 195 192 190 188 186 181 181 188 186 183 186 185 184 185 184 194 199 191 191 190 183 187 183 175 153 137 158 167 131 129 148 120 111 230 56 42 40 49 68 88 77 51 82 121 138 141 155 152 154 140 136 136 113 131 144 140 139 118 108 114 106 97 96 96 98 111 108 359 18 41 3 328 340 340
185 183 182 182 180 182 182 182 181 181 191 196 192 188 186 186 184 182 185 188 189 190 189 187 183 190 204 200 188 193 194 188 192 188 182 176 164 168 176 141 145 179 138 133 198 55 68 44 27 64 90 92 95 107 138 135 132 146 149 164 160 150 146 133 154 162 170 161 145 128 114 125 115 100 111 86 72 78 48 38 51 353 314 337 341
185 184 184 184 182 182 186 188 187 185 191 196 193 189 187 186 184 183 182 186 194 191 189 191 184 193 211 203 190 194 199 196 197 196 194 195 190 179 192 188 169 184 142 120 109 81 96 343 341 48 70 71 76 114 145 138 130 142 151 168 171 163 156 187 190 177 182 180 164 162 123 128 141 124 113 86 63 83 97 23 19 15 359 360 29
185 185 185 186 184 184 188 193 193 191 192 196 196 191 189 187 184 184 183 183 192 190 188 193 190 190 204 207 199 197 199 202 204 204 202 202 207 191 184 218 225 209 163 138 200 112 117 147 306 36 60 57 60 97 137 143 148 149 156 186 179 174 177 181 179 171 186 189 178 172 140 141 160 136 82 121 176 180 214 294 348 16 23 20 54
186 186 187 188 187 186 191 198 198 196 195 197 198 195 193 193 186 183 184 184 185 187 189 192 195 192 195 207 207 201 201 205 208 206 206 207 210 201 193 212 234 237 210 196 244 326 84 66 354 44 39 32 67 94 102 136 163 164 162 199 185 149 77 154 160 157 187 193 176 177 167 175 185 185 287 210 230 286 219 274 320 351 19 23 35
187 188 188 189 189 188 193 202 202 200 200 201 201 198 199 201 195 188 186 186 183 188 192 191 196 197 194 203 210 209 205 205 208 204 205 210 210 210 207 210 229 239 223 211 229 257 6 18 22 89 66 23 74 95 67 100 150 165 153 168 168 60 17 32 120 128 184 221 191 176 196 200 194 219 271 262 251 284 180 254 306 332 349 1 17
188 188 188 190 191 189 194 202 205 204 203 205 206 203 204 205 204 200 196 195 195 198 199 193 196 202 198 200 208 214 210 205 208 208 206 209 212 216 216 213 217 233 239 226 221 235 244 214 233 192 148 181 110 101 88 98 107 141 140 157 201 28 15 40 54 89 171 271 310 185 210 198 202 229 248 274 246 235 230 258 279 289 310 324 339
186 187 188 190 192 190 194 202 206 206 206 208 209 207 208 209 208 208 206 206 208 210 211 203 198 201 201 201 203 212 217 209 205 211 214 211 213 216 219 221 215 222 239 236 221 209 213 225 236 236 202 237 167 121 136 156 107 149 171 179 204 236 182 149 117 113 133 344 335 245 260 171 189 226 226 269 250 228 243 270 272 235 264 291 313
186 188 188 189 191 189 194 203 207 208 208 210 211 209 211 212 212 211 212 214 213 212 216 215 208 202 201 202 200 206 220 218 207 210 217 216 218 220 219 224 222 222 228 230 229 222 226 239 250 264 262 272 325 142 159 157 142 168 206 192 185 207 199 179 200 180 155 216 214 234 360 117 233 232 284 287 245 245 244 272 299 276 235 261 295
187 188 188 188 190 190 195 205 210 211 211 212 213 212 212 214 215 215 215 217 216 210 209 217 218 211 207 205 202 204 213 222 217 215 218 218 221 226 223 223 223 224 221 213 220 226 237 248 253 259 251 234 259 253 170 161 165 176 209 215 189 188 200 199 211 207 191 213 241 254 239 246 227 154 264 276 244 278 239 255 294 291 239 245 269
188 188 188 189 190 191 195 203 210 213 213 214 215 215 214 215 216 217 217 219 220 216 207 207 216 220 221 217 215 215 214 217 220 223 225 222 223 227 225 224 222 224 224 217 216 220 237 252 252 249 246 241 255 258 209 218 208 190 206 234 212 194 206 208 215 221 211 212 245 266 289 336 9 147 261 277 276 272 252 250 260 250 246 251 251
Height
1539 1540 1542 1542 1543 1542 1543 1543 1545 1546 1547 1548 1549 1551 1551 1553 1554 1556 1557 1559 1559 1559 1559 1560 1560 1561 1561 1562 1563 1563 1564 1564 1564 1565 1565 1565 1565 1565 1565 1565 1565 1565 1565 1565 1566 1566 1566 1566 1566 1566 1566 1567 1567 1567 1567 1567 1567 1568 1568 1568 1569 1570 1570 1570 1570 1572 1573 1573 1574 1574 1574 1575 1575 1575 1575 1576 1576 1575 1575 1575 1574 1576 1577 1575 1574
1539 1540 1542 1543 1544 1545 1546 1546 1547 1548 1549 1550 1551 1552 1553 1555 1556 1558 1559 1560 1560 1560 1560 1561 1561 1562 1563 1563 1564 1565 1565 1565 1565 1565 1566 1566 1566 1566 1566 1566 1566 1567 1566 1566 1566 1566 1566 1566 1567 1567 1567 1567 1567 1567 1568 1568 1568 1569 1569 1570 1570 1571 1571 1572 1573 1574 1575 1575 1575 1575 1575 1575 1576 1576 1576 1576 1576 1576 1577 1577 1574 1575 1578 1577 1576
1539 1541 1543 1544 1545 1546 1548 1548 1549 1550 1551 1552 1553 1554 1555 1556 1557 1558 1559 1560 1560 1561 1562 1562 1563 1563 1564 1565 1565 1566 1566 1566 1566 1567 1567 1567 1567 1568 1568 1568 1568 1568 1568 1567 1567 1567 1567 1567 1567 1567 1567 1568 1568 1569 1569 1569 1569 1570 1570 1571 1571 1571 1572 1573 1574 1575 1576 1577 1577 1576 1576 1576 1576 1576 1577 1577 1577 1577 1577 1579 1577 1575 1577 1579 1579
1540 1542 1544 1545 1546 1547 1549 1550 1551 1552 1553 1553 1554 1555 1556 1557 1558 1559 1560 1561 1561 1562 1563 1563 1564 1565 1565 1566 1567 1567 1567 1567 1567 1567 1568 1568 1569 1569 1569 1569 1569 1569 1568 1568 1568 1568 1568 1568 1568 1568 1568 1568 1569 1570 1570 1570 1571 1571 1571 1572 1572 1572 1573 1573 1574 1576 1577 1577 1577 1577 1577 1578 1577 1578 1578 1578 1578 1578 1578 1579 1579 1577 1577 1578 1580
1540 1542 1544 1546 1547 1548 1550 1551 1552 1553 1554 1554 1555 1556 1557 1558 1559 1560 1561 1562 1563 1563 1564 1565 1565 1566 1566 1567 1567 1568 1568 1568 1569 1569 1570 1570 1570 1570 1570 1570 1570 1570 1569 1569 1569 1569 1569 1569 1569 1569 1569 1570 1570 1571 1571 1572 1572 1573 1573 1573 1573 1573 1574 1574 1575 1576 1577 1577 1578 1578 1578 1578 1578 1579 1579 1579 1579 1579 1579 1579 1580 1581 1580 1578 1580
1541 1543 1545 1546 1548 1549 1550 1552 1553 1554 1555 1556 1557 1558 1559 1559 1560 1561 1562 1563 1564 1564 1565 1566 1566 1567 1567 1568 1568 1569 1569 1569 1570 1571 1571 1571 1571 1571 1571 1571 1571 1571 1571 1570 1570 1570 1570 1570 1570 1570 1571 1571 1571 1572 1572 1573 1574 1574 1574 1575 1574 1574 1575 1575 1576 1577 1578 1579 1579 1579 1579 1579 1579 1579 1580 1580 1580 1580 1581 1580 1580 1581 1582 1580 1580
1542 1544 1546 1547 1549 1550 1551 1552 1554 1555 1556 1557 1558 1558 1559 1560 1561 1562 1563 1563 1564 1565 1566 1566 1567 1568 1568 1568 1569 1570 1571 1571 1571 1571 1571 1571 1571 1571 1572 1572 1572 1572 1572 1572 1572 1572 1571 1571 1571 1572 1572 1572 1573 1573 1574 1574 1575 1575 1576 1576 1576 1576 1576 1576 1577 1578 1579 1580 1581 1580 1580 1580 1580 1580 1580 1581 1581 1581 1582 1582 1581 1582 1583 1582 1581
1544 1546 1547 1548 1550 1551 1552 1553 1554 1555 1556 1557 1558 1559 1560 1561 1561 1562 1563 1564 1565 1566 1567 1567 1568 1568 1569 1569 1570 1571 1572 1571 1571 1571 1572 1572 1572 1572 1572 1573 1573 1573 1573 1573 1573 1573 1573 1573 1573 1573 1573 1574 1574 1574 1575 1576 1577 1577 1577 1577 1577 1577 1578 1577 1578 1580 1580 1581 1582 1581 1581 1582 1581 1581 1581 1581 1582 1583 1583 1583 1583 1583 1584 1584 1583
1545 1547 1548 1549 1550 1552 1553 1554 1555 1556 1556 1557 1558 1560 1561 1561 1562 1563 1564 1565 1566 1567 1568 1568 1569 1569 1569 1570 1571 1572 1573 1572 1572 1573 1573 1573 1573 1573 1573 1573 1574 1574 1574 1575 1575 1574 1574 1574 1574 1574 1575 1575 1575 1576 1577 1577 1578 1578 1578 1578 1579 1579 1579 1579 1579 1581 1581 1582 1582 1581 1582 1582 1583 1583 1583 1583 1583 1584 1583 1584 1584 1584 1585 1585 1585
1546 1548 1549 1550 1551 1553 1553 1555 1556 1557 1558 1559 1560 1561 1562 1563 1563 1564 1565 1566 1567 1568 1568 1569 1569 1570 1570 1571 1572 1573 1574 1574 1574 1574 1574 1574 1574 1574 1574 1574 1575 1576 1576 1576 1576 1576 1575 1575 1575 1576 1576 1576 1577 1577 1578 1579 1579 1580 1580 1580 1580 1580 1580 1580 1579 1580 1581 1582 1583 1582 1583 1584 1584 1585 1584 1585 1584 1585 1584 1585 1586 1585 1586 1587 1587
1547 1549 1550 1551 1552 1553 1555 1556 1557 1558 1559 1560 1561 1562 1563 1563 1564 1565 1566 1567 1568 1569 1569 1570 1570 1571 1571 1572 1573 1574 1575 1575 1574 1574 1575 1575 1575 1575 1576 1576 1577 1577 1577 1577 1577 1577 1576 1577 1577 1577 1577 1577 1578 1579 1579 1580 1581 1581 1581 1581 1580 1581 1581 1581 1580 1580 1581 1583 1584 1584 1584 1585 1585 1585 1585 1586 1586 1586 1586 1587 1587 1587 1588 1589 1589
1548 1549 1550 1551 1553 1554 1556 1557 1558 1559 1560 1561 1562 1563 1564 1565 1565 1566 1567 1568 1569 1570 1570 1571 1571 1571 1571 1572 1573 1574 1576 1577 1575 1575 1576 1576 1576 1576 1577 1577 1578 1578 1578 1578 1578 1578 1578 1578 1578 1578 1578 1578 1579 1580 1581 1582 1582 1583 1582 1581 1581 1582 1583 1583 1582 1582 1583 1584 1586 1585 1585 1586 1586 1586 1587 1587 1587 1588 1588 1589 1589 1588 1590 1590 1590
1548 1549 1550 1552 1554 1555 1556 1558 1559 1560 1561 1562 1563 1564 1565 1566 1567 1567 1568 1569 1570 1571 1571 1572 1572 1572 1572 1573 1574 1575 1577 1578 1576 1576 1577 1577 1577 1577 1577 1578 1578 1579 1579 1579 1579 1579 1579 1579 1579 1579 1579 1580 1580 1581 1582 1583 1584 1584 1584 1582 1582 1584 1585 1585 1584 1584 1584 1585 1586 1586 1586 1587 1587 1588 1588 1588 1589 1589 1590 1591 1590 1590 1591 1591 1591
1548 1549 1550 1552 1554 1556 1557 1558 1559 1561 1562 1563 1564 1565 1566 1567 1568 1568 1569 1570 1571 1572 1572 1573 1573 1573 1573 1574 1575 1576 1577 1578 1577 1577 1577 1577 1577 1578 1578 1578 1579 1580 1580 1580 1580 1580 1580 1580 1580 1580 1580 1581 1582 1582 1583 1584 1585 1586 1585 1583 1582 1584 1586 1586 1585 1586 1586 1586 1586 1587 1587 1588 1588 1589 1589 1589 1590 1590 1591 1591 1592 1593 1593 1593 1592
1549 1550 1551 1553 1555 1557 1558 1559 1560 1562 1563 1564 1565 1566 1567 1568 1569 1569 1570 1571 1572 1572 1573 1573 1574 1574 1575 1575 1576 1577 1578 1578 1578 1578 1578 1578 1578 1578 1579 1579 1580 1581 1581 1581 1581 1581 1580 1580 1581 1581 1581 1582 1582 1583 1584 1585 1586 1587 1587 1586 1583 1584 1586 1585 1585 1586 1587 1588 1588 1588 1588 1589 1589 1589 1590 1590 1591 1592 1591 1592 1593 1595 1595 1594 1593
1551 1551 1552 1554 1556 1558 1559 1560 1561 1563 1564 1565 1566 1567 1568 1569 1570 1570 1571 1572 1572 1573 1574 1574 1575 1575 1576 1576 1577 1577 1578 1579 1579 1579 1579 1579 1579 1579 1580 1580 1580 1581 1581 1581 1581 1581 1581 1581 1581 1582 1582 1583 1583 1584 1585 1586 1587 1588 1589 1588 1586 1585 1585 1586 1586 1588 1588 1589 1589 1590 1590 1590 1590 1590 1591 1591 1592 1593 1593 1593 1595 1596 1596 1595 1595
1551 1552 1553 1555 1557 1559 1560 1561 1562 1564 1565 1566 1567 1568 1569 1570 1571 1571 1572 1573 1573 1574 1575 1576 1576 1577 1577 1577 1577 1578 1579 1579 1580 1580 1580 1580 1580 1580 1581 1581 1581 1581 1582 1582 1582 1582 1582 1582 1582 1582 1583 1584 1584 1585 1586 1587 1588 1589 1590 1589 1589 1587 1586 1587 1588 1590 1590 1590 1590 1591 1591 1591 1591 1591 1591 1592 1592 1593 1595 1596 1596 1597 1597 1596 1596
1552 1553 1554 1556 1557 1559 1560 1562 1563 1564 1566 1567 1568 1569 1570 1571 1571 1572 1573 1573 1574 1575 1576 1577 1577 1578 1578 1578 1579 1579 1580 1580 1581 1581 1581 1581 1581 1581 1581 1582 1582 1582 1582 1582 1583 1583 1583 1583 1583 1583 1584 1584 1585 1586 1587 1588 1589 1590 1591 1591 1591 1590 1589 1590 1591 1592 1591 1591 1591 1592 1592 1592 1592 1592 1592 1592 1593 1594 1596 1596 1596 1597 1598 1597 1597
1553 1555 1555 1557 1558 1560 1561 1562 1563 1565 1566 1567 1569 1569 1570 1571 1572 1573 1573 1574 1575 1576 1576 1577 1578 1579 1580 1580 1581 1581 1581 1582 1582 1582 1582 1582 1581 1582 1582 1582 1583 1583 1583 1583 1584 1584 1584 1584 1584 1585 1585 1585 1586 1586 1587 1588 1589 1590 1591 1592 1593 1592 1592 1592 1593 1592 1592 1592 1592 1593 1593 1593 1593 1594 1594 1594 1595 1595 1595 1596 1597 1599 1599 1599 1599
1554 1555 1556 1558 1559 1560 1561 1563 1564 1565 1567 1568 1569 1570 1571 1572 1572 1573 1574 1575 1576 1577 1577 1578 1579 1580 1581 1581 1582 1582 1583 1583 1583 1583 1583 1583 1583 1583 1583 1583 1583 1583 1584 1584 1585 1585 1585 1585 1586 1586 1586 1586 1587 1587 1588 1589 1590 1591 1591 1592 1593 1593 1594 1594 1593 1593 1592 1592 1593 1593 1594 1594 1594 1594 1595 1595 1595 1596 1597 1598 1599 1600 1600 1599 1599
1554 1556 1557 1559 1559 1561 1562 1563 1564 1566 1567 1568 1570 1571 1572 1572 1573 1574 1575 1576 1577 1578 1578 1579 1580 1581 1582 1582 1583 1583 1584 1584 1584 1585 1585 1584 1584 1584 1584 1584 1585 1585 1585 1586 1586 1586 1586 1587 1587 1587 1587 1588 1588 1588 1589 1589 1590 1591 1591 1592 1592 1593 1594 1594 1594 1594 1594 1594 1594 1595 1596 1596 1595 1595 1596 1596 1597 1599 1600 1600 1600 1600 1600 1600 1599
1554 1555 1558 1559 1560 1561 1562 1563 1565 1566 1567 1569 1570 1571 1572 1573 1574 1575 1576 1577 1577 1578 1579 1580 1581 1581 1582 1583 1583 1584 1585 1585 1585 1586 1586 1585 1585 1585 1585 1586 1586 1587 1587 1587 1587 1587 1588 1588 1588 1588 1588 1589 1589 1590 1590 1590 1591 1591 1592 1592 1592 1593 1594 1594 1594 1596 1596 1596 1596 1597 1598 1598 1598 1598 1598 1599 1600 1601 1601 1601 1600 1600 1600 1600 1599
1553 1555 1558 1559 1560 1562 1563 1564 1565 1566 1568 1569 1570 1571 1573 1573 1575 1576 1577 1578 1578 1579 1580 1580 1581 1582 1583 1583 1584 1584 1585 1586 1586 1587 1587 1587 1587 1586 1587 1587 1587 1588 1588 1588 1588 1589 1589 1589 1589 1589 1588 1589 1590 1590 1591 1591 1592 1592 1592 1592 1593 1594 1594 1594 1595 1597 1597 1597 1598 1598 1599 1599 1600 1600 1601 1601 1602 1602 1602 1601 1601 1600 1600 1600 1599
1553 1555 1557 1559 1560 1561 1563 1564 1565 1567 1568 1569 1571 1572 1573 1574 1575 1577 1578 1578 1579 1579 1580 1581 1582 1583 1583 1583 1585 1585 1586 1587 1587 1587 1588 1588 1588 1588 1588 1588 1588 1588 1588 1589 1589 1589 1589 1589 1588 1589 1589 1590 1590 1591 1591 1592 1593 1592 1593 1594 1595 1596 1596 1595 1596 1597 1597 1598 1599 1599 1600 1600 1601 1601 1601 1602 1602 1602 1601 1601 1601 1600 1600 1600 1600
1553 1555 1557 1559 1560 1562 1563 1564 1565 1567 1568 1569 1571 1572 1574 1575 1576 1577 1578 1579 1580 1581 1581 1582 1582 1583 1584 1584 1585 1586 1587 1587 1588 1588 1589 1589 1589 1589 1590 1590 1589 1588 1588 1589 1589 1589 1589 1589 1589 1590 1591 1591 1591 1591 1593 1594 1594 1594 1594 1596 1596 1597 1597 1596 1596 1597 1597 1598 1599 1600 1600 1600 1601 1601 1602 1602 1601 1601 1601 1601 1601 1601 1600 1600 1600
1553 1555 1557 1559 1560 1562 1563 1564 1566 1567 1569 1570 1572 1573 1574 1575 1577 1578 1579 1580 1581 1581 1582 1583 1583 1584 1585 1585 1586 1587 1588 1588 1588 1589 1589 1589 1590 1591 1591 1591 1590 1589 1590 1590 1590 1591 1591 1591 1591 1591 1592 1592 1593 1593 1595 1596 1596 1596 1596 1596 1597 1597 1598 1598 1596 1597 1598 1599 1599 1600 1600 1600 1601 1601 1601 1601 1601 1601 1601 1601 1601 1601 1601 1600 1600
1553 1554 1557 1559 1560 1562 1564 1565 1566 1567 1569 1571 1572 1573 1575 1576 1577 1578 1579 1580 1581 1582 1583 1584 1584 1585 1586 1586 1586 1586 1587 1588 1589 1589 1589 1590 1591 1591 1591 1591 1590 1590 1591 1592 1592 1592 1592 1592 1593 1594 1594 1595 1595 1596 1596 1596 1596 1596 1596 1596 1597 1597 1598 1599 1598 1598 1598 1599 1599 1600 1600 1600 1600 1600 1601 1601 1601 1601 1601 1601 1601 1601 1601 1601 1601
1552 1554 1556 1558 1561 1562 1564 1565 1566 1568 1569 1571 1573 1574 1576 1577 1577 1579 1580 1581 1582 1583 1584 1584 1584 1585 1586 1587 1587 1587 1588 1588 1589 1589 1590 1591 1591 1592 1592 1591 1592 1592 1592 1593 1593 1594 1594 1595 1595 1596 1597 1597 1597 1597 1596 1596 1596 1597 1597 1597 1597 1598 1598 1599 1599 1599 1599 1599 1599 1599 1600 1600 1600 1600 1600 1600 1601 1601 1601 1601 1601 1601 1601 1601 1601
1551 1554 1556 1558 1561 1562 1563 1566 1566 1568 1570 1571 1573 1574 1576 1577 1578 1579 1581 1581 1583 1584 1585 1585 1585 1586 1586 1587 1588 1588 1588 1589 1590 1590 1591 1592 1592 1592 1592 1592 1594 1594 1594 1595 1595 1596 1596 1597 1597 1597 1597 1597 1597 1597 1597 1597 1597 1597 1597 1597 1598 1598 1598 1599 1600 1600 1599 1599 1599 1599 1600 1600 1600 1600 1600 1600 1600 1601 1601 1601 1601 1601 1601 1601 1601
1551 1553 1556 1558 1560 1562 1563 1566 1566 1568 1570 1571 1573 1574 1576 1577 1578 1580 1581 1582 1584 1584 1585 1586 1586 1587 1587 1587 1587 1587 1589 1590 1591 1591 1591 1592 1592 1592 1592 1593 1594 1594 1594 1595 1596 1596 1597 1597 1597 1598 1598 1597 1598 1597 1598 1598 1598 1599 1598 1598 1599 1599 1599 1599 1600 1601 1600 1599 1600 1600 1600 1600 1600 1600 1600 1600 1600 1601 1601 1601 1601 1601 1601 1601 1601
1550 1553 1555 1557 1559 1561 1563 1565 1566 1568 1570 1572 1573 1574 1576 1577 1578 1580 1581 1582 1584 1584 1585 1587 1587 1588 1587 1587 1588 1588 1589 1590 1591 1591 1591 1592 1593 1593 1593 1593 1594 1594 1595 1595 1595 1595 1596 1597 1597 1597 1597 1598 1598 1598 1598 1599 1599 1599 1599 1599 1599 1599 1599 1600 1600 1601 1601 1600 1600 1600 1600 1600 1600 1600 1600 1600 1600 1601 1601 1601 1601 1601 1601 1602 1602
1550 1552 1554 1557 1559 1561 1563 1564 1566 1567 1570 1572 1573 1574 1575 1577 1578 1580 1581 1582 1583 1584 1586 1587 1588 1588 1587 1587 1588 1588 1589 1589 1591 1592 1592 1592 1593 1594 1594 1594 1594 1594 1595 1595 1595 1596 1596 1596 1597 1597 1597 1598 1598 1599 1599 1600 1600 1600 1600 1600 1600 1600 1600 1600 1601 1601 1602 1601 1600 1600 1600 1600 1600 1601 1601 1601 1601 1601 1601 1601 1602 1601 1601 1601 1602
1549 1551 1554 1556 1558 1561 1562 1564 1566 1567 1569 1571 1572 1574 1575 1576 1578 1580 1581 1582 1583 1585 1587 1587 1587 1587 1587 1587 1588 1589 1589 1589 1590 1591 1592 1592 1593 1594 1594 1594 1595 1595 1595 1595 1596 1597 1597 1597 1597 1597 1597 1598 1599 1599 1600 1600 1601 1600 1601 1601 1601 1600 1600 1601 1601 1601 1602 1602 1602 1601 1600 1600 1601 1601 1601 1601 1601 1601 1601 1602 1602 1602 1602 1602 1602
1548 1550 1553 1555 1558 1560 1562 1564 1565 1566 1569 1571 1572 1574 1575 1576 1578 1580 1581 1582 1583 1585 1586 1587 1587 1587 1587 1588 1588 1589 1589 1589 1590 1591 1592 1592 1593 1594 1594 1594 1595 1596 1596 1596 1596 1597 1597 1597 1598 1597 1597 1598 1599 1600 1600 1600 1601 1601 1601 1602 1601 1601 1601 1601 1602 1602 1602 1603 1603 1602 1601 1601 1601 1601 1601 1601 1601 1601 1601 1602 1602 1602 1602 1602 1602
1546 1549 1552 1554 1557 1559 1561 1563 1565 1566 1569 1571 1572 1574 1576 1577 1578 1580 1581 1582 1584 1585 1586 1587 1587 1587 1588 1588 1588 1589 1589 1590 1591 1592 1592 1593 1594 1594 1594 1595 1595 1596 1597 1596 1597 1598 1598 1598 1598 1598 1598 1598 1599 1600 1600 1601 1601 1601 1601 1602 1602 1601 1601 1602 1602 1602 1603 1603 1603 1603 1602 1602 1602 1602 1602 1602 1602 1602 1602 1602 1602 1602 1602 1602 1602
1545 1548 1551 1553 1556 1558 1560 1562 1564 1566 1568 1570 1571 1573 1576 1577 1578 1580 1581 1582 1583 1585 1586 1587 1588 1588 1589 1588 1589 1589 1590 1590 1591 1593 1593 1593 1594 1594 1595 1596 1596 1597 1597 1597 1597 1598 1598 1599 1598 1598 1598 1598 1599 1600 1600 1600 1601 1601 1602 1602 1602 1602 1602 1602 1603 1603 1603 1603 1603 1603 1603 1603 1602 1602 1602 1602 1602 1602 1602 1602 1602 1602 1602 1603 1602
1544 1547 1549 1552 1555 1557 1559 1562 1564 1565 1567 1569 1571 1573 1575 1576 1578 1579 1580 1581 1583 1585 1586 1588 1588 1589 1589 1589 1589 1590 1590 1591 1591 1593 1594 1594 1594 1595 1595 1596 1596 1597 1598 1598 1598 1599 1599 1599 1599 1599 1599 1598 1599 1600 1600 1600 1601 1602 1602 1602 1603 1602 1602 1603 1603 1604 1603 1604 1604 1604 1604 1604 1603 1602 1602 1602 1602 1602 1602 1602 1602 1602 1603 1603 1603
1543 1546 1548 1551 1554 1556 1558 1561 1563 1565 1567 1568 1570 1572 1574 1576 1577 1579 1580 1581 1583 1585 1586 1587 1588 1589 1589 1589 1589 1590 1590 1591 1592 1593 1594 1594 1594 1595 1595 1596 1596 1597 1597 1598 1599 1599 1600 1600 1599 1599 1599 1599 1599 1600 1600 1600 1601 1602 1603 1603 1603 1603 1603 1603 1603 1604 1604 1604 1605 1605 1605 1605 1604 1604 1604 1603 1603 1603 1603 1602 1602 1603 1603 1603 1603
1541 1544 1547 1549 1553 1555 1557 1560 1562 1564 1566 1567 1570 1572 1573 1575 1577 1578 1580 1581 1583 1585 1586 1587 1588 1589 1589 1589 1589 1590 1591 1591 1592 1593 1594 1594 1595 1594 1595 1596 1597 1597 1597 1597 1598 1599 1600 1600 1600 1600 1600 1600 1600 1600 1600 1601 1601 1602 1603 1603 1603 1603 1603 1603 1604 1604 1605 1605 1605 1606 1606 1606 1606 1605 1604 1604 1604 1603 1603 1603 1603 1603 1603 1603 1603
1540 1543 1545 1548 1551 1553 1556 1559 1561 1563 1565 1566 1569 1571 1573 1575 1577 1579 1580 1581 1583 1585 1586 1587 1588 1589 1589 1588 1589 1590 1591 1591 1592 1593 1593 1594 1594 1595 1595 1596 1597 1598 1598 1598 1598 1599 1600 1599 1599 1600 1600 1600 1600 1600 1600 1601 1602 1602 1603 1603 1603 1603 1603 1603 1604 1605 1605 1606 1606 1606 1607 1606 1606 1606 1605 1606 1606 1605 1604 1603 1603 1603 1603 1603 1603
1538 1541 1543 1546 1549 1551 1554 1557 1559 1561 1563 1565 1567 1570 1572 1574 1576 1578 1580 1581 1583 1584 1585 1586 1588 1589 1588 1588 1589 1590 1590 1591 1592 1592 1593 1593 1594 1595 1595 1596 1597 1598 1598 1598 1598 1599 1599 1598 1599 1600 1600 1601 1601 1601 1601 1601 1602 1602 1603 1603 1603 1603 1604 1604 1605 1606 1606 1606 1606 1607 1607 1607 1606 1606 1606 1606 1606 1606 1605 1604 1604 1605 1604 1603 1603
1535 1538 1541 1544 1547 1549 1552 1554 1557 1560 1561 1563 1566 1569 1571 1573 1575 1578 1580 1581 1582 1583 1584 1586 1587 1588 1588 1588 1589 1590 1590 1591 1592 1592 1593 1594 1594 1594 1595 1596 1597 1597 1598 1598 1598 1598 1598 1598 1600 1601 1601 1601 1601 1601 1601 1602 1602 1603 1603 1604 1604 1604 1604 1604 1605 1606 1606 1607 1607 1607 1607 1607 1607 1607 1607 1606 1606 1606 1606 1605 1605 1605 1604 1604 1604
1533 1536 1539 1542 1545 1547 1550 1552 1555 1558 1560 1562 1565 1568 1570 1573 1575 1577 1580 1581 1582 1583 1585 1586 1587 1588 1588 1588 1589 1590 1591 1591 1592 1593 1593 1594 1594 1594 1595 1596 1597 1597 1598 1598 1598 1599 1599 1599 1600 1601 1601 1600 1600 1600 1601 1602 1603 1603 1603 1604 1604 1605 1605 1605 1606 1606 1606 1607 1607 1607 1607 1608 1608 1607 1607 1607 1607 1607 1607 1606 1605 1605 1604 1604 1604
1530 1533 1537 1539 1542 1545 1547 1550 1553 1556 1559 1561 1564 1567 1569 1572 1574 1577 1579 1581 1582 1583 1584 1585 1586 1588 1588 1588 1589 1589 1590 1591 1592 1593 1593 1594 1594 1595 1596 1597 1597 1597 1598 1598 1599 1599 1600 1600 1600 1600 1601 1600 1600 1600 1601 1601 1602 1603 1604 1604 1604 1604 1604 1605 1605 1606 1607 1607 1607 1607 1608 1608 1608 1607 1608 1608 1608 1607 1607 1606 1605 1605 1604 1604 1604
1527 1530 1533 1536 1539 1542 1545 1548 1551 1554 1557 1559 1562 1565 1568 1570 1573 1575 1578 1580 1581 1582 1583 1585 1585 1587 1588 1588 1588 1589 1590 1591 1592 1593 1593 1594 1595 1595 1596 1597 1597 1597 1598 1599 1599 1599 1599 1600 1600 1600 1600 1600 1600 1601 1601 1601 1602 1602 1603 1603 1603 1603 1603 1604 1605 1606 1606 1607 1607 1607 1607 1608 1608 1607 1607 1608 1607 1607 1607 1606 1605 1605 1605 1604 1604
1524 1527 1531 1534 1537 1540 1543 1545 1549 1552 1555 1558 1561 1564 1566 1568 1570 1573 1575 1577 1579 1580 1582 1584 1585 1586 1587 1588 1589 1589 1590 1591 1591 1592 1593 1594 1594 1595 1596 1596 1597 1597 1598 1598 1599 1599 1599 1600 1601 1600 1599 1600 1600 1600 1601 1601 1602 1602 1602 1603 1603 1604 1604 1603 1604 1605 1606 1606 1607 1607 1607 1608 1608 1607 1607 1607 1607 1607 1607 1607 1606 1605 1604 1604 1604
1521 1525 1529 1532 1535 1538 1540 1543 1546 1550 1553 1555 1558 1561 1563 1566 1569 1571 1573 1575 1577 1579 1580 1583 1585 1586 1587 1588 1589 1589 1589 1590 1591 1592 1593 1594 1594 1595 1595 1596 1597 1597 1597 1598 1598 1599 1600 1600 1600 1600 1600 1600 1600 1600 1601 1602 1602 1602 1603 1603 1604 1605 1605 1605 1605 1606 1606 1606 1606 1607 1608 1608 1608 1608 1607 1607 1607 1607 1607 1607 1607 1606 1605 1604 1604
1519 1522 1526 1529 1532 1535 1537 1540 1543 1547 1550 1553 1556 1559 1561 1564 1567 1570 1572 1574 1576 1578 1579 1581 1584 1585 1587 1588 1589 1589 1589 1590 1591 1592 1592 1593 1594 1594 1595 1596 1596 1597 1597 1598 1598 1600 1600 1600 1600 1600 1600 1600 1600 1600 1601 1602 1602 1602 1603 1604 1604 1605 1605 1606 1606 1607 1607 1607 1607 1607 1607 1607 1608 1608 1607 1607 1607 1607 1606 1606 1606 1606 1605 1604 1604
1516 1519 1522 1526 1529 1532 1535 1537 1541 1544 1547 1550 1553 1556 1559 1562 1565 1568 1570 1572 1575 1577 1579 1580 1582 1584 1585 1586 1588 1589 1589 1589 1590 1591 1592 1592 1593 1594 1595 1595 1596 1596 1597 1598 1599 1599 1599 1599 1599 1600 1600 1600 1600 1600 1601 1601 1602 1603 1603 1603 1604 1605 1605 1606 1606 1607 1607 1607 1607 1608 1607 1607 1607 1607 1607 1607 1607 1607 1607 1605 1605 1605 1605 1605 1604
1513 1516 1520 1524 1527 1529 1532 1534 1538 1541 1544 1547 1550 1554 1557 1559 1562 1565 1568 1570 1573 1576 1578 1579 1580 1582 1584 1585 1586 1588 1588 1589 1589 1590 1591 1592 1593 1593 1594 1595 1595 1596 1597 1598 1598 1599 1599 1599 1599 1600 1600 1600 1600 1600 1601 1601 1601 1602 1603 1603 1603 1604 1605 1606 1606 1607 1607 1608 1608 1608 1607 1607 1607 1607 1607 1607 1607 1607 1607 1606 1605 1605 1605 1605 1604
1511 1514 1517 1520 1524 1526 1528 1531 1534 1538 1541 1544 1547 1551 1554 1557 1560 1563 1565 1568 1571 1573 1576 1578 1579 1580 1582 1583 1585 1586 1587 1588 1589 1589 1590 1591 1592 1593 1593 1594 1595 1595 1596 1597 1597 1598 1599 1599 1599 1599 1600 1600 1600 1600 1601 1601 1601 1602 1602 1603 1603 1604 1605 1605 1606 1606 1607 1607 1607 1607 1607 1607 1607 1607 1607 1606 1606 1606 1606 1606 1605 1606 1605 1605 1605